www.pogodaiklimat.ru

ПОГОДА в Флинте, MI

  • Прогноз погоды в Флинте
  • Монитор погоды в Флинте
  • Климат в Флинте

АРХИВ ПОГОДЫ в Флинте

Время (UTC), дата Ветер
(напр.,м/с)
 
Видим.   Явления Облачность Т
(С)
Тd
(С)
f
(%)
Тe
(С)
Тes
(С)
Комфортность

P
(гПа)

Po
(гПа)
Тmin
(С)
Tmax
(С)
R
(мм)
SD
(см)
23:53 24.03 С  16 км    8/0 3600 м
[средняя] 
+6.7  0.0  62  +2  +2    1019.5  990.4         
00:53 25.03 СВ  16 км    ясно  +3.9  -0.6  72  -2  -2    1020.7  991.4         
01:53 25.03 СВ  16 км    5/0 3000 м
[средняя] 
+1.7  -2.2  75  -5  -5    1022.0  992.7         
02:53 25.03 СВ  16 км    ясно  0.0  -2.8  81  -5  -5    1022.4  993.0         
03:53 25.03 СВ  16 км    ясно  -1.1  -3.9  81  -7  -7    1023.0  993.7         
04:53 25.03 СВ  16 км    ясно  -1.1  -4.4  78  -7  -7    1023.2  994.0  -1.1  +9.4     
05:53 25.03 СВ  16 км    2/2 1800 м  -1.7  -4.4  82  -8  -8    1023.2  994.0         
06:53 25.03 СВ  16 км    10/10 1800 м  -1.7  -4.4  82  -8  -8    1023.4  994.0         
07:53 25.03 С  16 км    10/10 1650 м  -1.1  -4.4  78  -7  -7    1023.3  994.0         
08:53 25.03 СВ  16 км    10/10 1800 м  -1.1  -4.4  78  -8  -8    1023.7  994.4         
09:53 25.03 СВ  16 км    8/8 1800 м  -2.2  -6.7  71  -8  -8    1024.3  995.0         
10:53 25.03 СВ  16 км    ясно  -2.2  -5.6  77  -9  -9    1024.9  995.3  -2.2  -1.1     
11:53 25.03 СВ  16 км    ясно  -1.1  -5.0  75  -8  -8    1025.7  996.3         
12:53 25.03 СВ  16 км    5/5 600 м  0.0  -4.4  72  -6  -6    1025.9  996.3         
13:53 25.03 СВ  16 км    ясно  +1.7  -5.6  58  -4  -3    1025.9  996.3         
14:53 25.03 СВ  н/о    ясно  +2.8  -6.7  50  -2  +3    1026.0  996.3         
15:53 25.03 СВ  н/о    ясно  +3.9  -8.3  41  -0  +5    1026.0  996.3         
16:53 25.03 С  н/о    ясно  +5.0  -8.9  36  +1  +5    1025.5  996.0  -2.2  +5.6     
17:53 25.03 С  6
{9} 
16 км    ясно  +6.1  -9.4  32  +2  +6    1025.1  995.7         
18:53 25.03 С  4
{10} 
16 км    ясно  +5.6  -11.7  28  +2  +8    1025.4  996.0         
19:53 25.03 С  7
{9} 
16 км    ясно  +5.0  -11.1  30  0  +2    1025.3  996.0         
20:53 25.03 СВ  4
{9} 
16 км    ясно  +4.4  -13.3  26  +1  +3    1025.1  995.7         
21:53 25.03 С  16 км    ясно  +3.9  -12.2  30  0  +2    1025.4  996.0         
22:53 25.03 С  16 км    ясно  +2.2  -11.7  35  +1  +1    1025.7  996.0  +2.2  +6.1     
23:53 25.03 С  16 км    ясно  +1.1  -11.1  40  -1  -1    1026.2  996.3         
00:53 26.03   16 км    ясно  -1.1  -11.1  47  -1  -1    1026.8  997.0         
01:53 26.03 С  16 км    ясно  -1.1  -11.1  47  -6  -6    1027.4  997.7         
02:53 26.03 СЗ  16 км    ясно  -1.7  -11.1  49  -7  -7    1027.9  998.3         
03:53 26.03 С  н/о    ясно  -2.8  -10.6  55  -8  -8    1028.2  998.6         
04:53 26.03 С  н/о    ясно  -2.8  -10.0  58  -8  -8    1028.4  998.6  -3.3  +2.2     
05:53 26.03 СЗ  н/о    ясно  -3.3  -10.0  60  -8  -8    1028.8  999.0         
06:53 26.03 СЗ  н/о    ясно  -4.4  -10.6  62  -9  -9    1029.0  999.3         
07:53 26.03 С  н/о    ясно  -5.0  -10.6  65  -11  -11    1029.4  999.6         
08:53 26.03 С  16 км    ясно  -5.0  -11.1  62  -10  -10    1029.9  1000.0         
09:53 26.03 С  16 км    ясно  -5.0  -11.1  62  -10  -10    1030.6  1000.9         
10:53 26.03 С  16 км    ясно  -5.0  -11.1  62  -10  -10    1031.7  1001.6  -5.6  -2.8     
11:53 26.03 С  16 км    ясно  -2.2  -10.0  55  -7  -7    1032.2  1002.3         
12:53 26.03 С  16 км    ясно  0.0  -8.9  51  -4  -3    1032.7  1002.9         
13:53 26.03 СВ  16 км    ясно  +0.6  -8.3  51  -3  +1    1033.1  1003.2         
14:53 26.03 нст  16 км    ясно  +2.2  -8.9  44  0  +9    1033.0  1003.2         
15:53 26.03 нст  16 км    ясно  +3.9  -10.6  34  +3  +14  опасность
простуды 
1032.5  1002.6         
16:53 26.03   16 км    ясно  +3.9  -11.1  33  +4  +21  опасность
простуды 
1032.3  1002.6  -5.0  +4.4     
17:53 26.03 нст  н/о    ясно  +6.1  -11.7  27  +4  +14  опасность
простуды 
1031.9  1002.3         
18:53 26.03     16 км    ясно  +6.1  -11.1  28  +6  +21  опасность
простуды 
1031.2  1001.6         
19:53 26.03 нст  н/о    ясно  +6.1  -10.6  29  +4  +12    1030.7  1000.9         
20:53 26.03   16 км    ясно  +7.2  -11.7  25  +7  +14    1030.6  1000.9         
21:53 26.03 З  16 км    ясно  +5.6  -12.2  26  +4  +6    1030.3  1000.6         
22:53 26.03 СЗ  н/о    ясно  +2.8  -8.3  44  -1  -0    1030.5  1000.6  +2.8  +7.8     

 

Местоположение метеостанции Bishop International Airport: широта 42.9667 долгота -83.7494 высота над уровнем моря 238 м.

В архиве по умолчанию представлена погода в Флинте за последние 1-2 суток. Обновление информации о фактической погоде в базе происходит ежечасно! Архивные данные за месяц целиком и за предыдущие месяцы Вы можете получить, выбрав интересующий диапазон дат из раскрывающегося списка и нажав кнопку "Ввод!".

Внимание! Архив погоды МЕТАР в базе сайта хранится не более 60 дней. Нет смысла пытаться выбрать более раннюю дату.

Внимание! Время в таблицах - всемирное. Для получения местного времени необходимо прибавить поправку, которая в Флинте равна -5 ч.

Ветер - указаны скорость ветра в м/с и направление, откуда дует ветер: С - северный, СВ - северо-восточный, В - восточный, ЮВ - юго-восточный, Ю - южный, ЮЗ - юго-западный, З - западный, СЗ - северо-западный.
Видимость - горизонтальная дальность видимости в метрах или километрах. При видимости от 1 до 10 км при отсутствии осадков обычно наблюдается дымка, при ухудшении видимости до 1 км и менее - туман. В сухую погоду видимость может ухудшаться дымом, пылью или мглою.
Атмосферные явления - указаны явления, наблюдавшиеся в указанный момент времени.
Облачность - указаны через наклонную черту верхняя и нижняя облачность в баллах и высота нижней границы облаков в метрах. Внимание: облачность, как и прочие метеорологические величины в США измеряются автоматическими метеостанциями. Указанные значения в баллах носят условный характер и показывают процент времени, в течение которого, в среднем, лазерный луч высотомера отражался от облаков обратно.
T - Температура воздуха - температура, измеренная на высоте 2 м над землей.
Td - Температура точки росы - температура, при понижении до которой содержащийся в воздухе водяной пар достигнет насыщения.
f - Относительная влажность воздуха - влажноcть воздуха, измеренная на высоте 2 м над землей.
Te - Эффективная температура - температура, которую ощущает одетый по сезону человек в тени. Характеристика душности погоды. При расчете учитывается влияние влажности воздуха и скорости ветра на теплоощущения человека.
Tes - Эффективная температура на солнце - температура, которую ощущает человек, с поправкой на солнечный нагрев. Характеристика знойности погоды. Зависит от высоты солнца над горизонтом, облачности и скорости ветра. Ночью, в пасмурную погоду, а также при ветре 12 м/с и более поправка равна нулю.
P - Атмосферное давление - приведенное к уровню моря атмосферное давление.
Po - Атмосферное давление - измеренное на уровне метеостанции атмосферное давление.
Tmin - Минимальная температура - минимум температуры воздуха на высоте 2 м над землей.
Tmax - Максимальная температура - максимум температуры воздуха на высоте 2 м над землей.
R - Количество осадков - Количество выпавших осадков за 3 или 6 часов, мм.
SD - Снежный покров - Высота снежного покрова, см.